Regional Weather Roundup
Issued by NWS

Home | Current Version | Previous Version | Text Only | Print | Product List | Glossary On
Versions: 1 2 3 4 5 6 7 8 9 10 11 12 13 14 15 16 17 18 19 20 21 22 23 24 25 26 27 28 29 30 31 32 33 34 35 36 37 38 39 40 41 42 43 44 45 46 47 48 49 50
000
ASUS43 KOAX 230202
RWRNE

WEATHER ROUNDUP FOR NEBRASKA
NATIONAL WEATHER SERVICE OMAHA NE
900 PM CDT THU JUN 22 2017

NOTES: SATELLITE DATA IS BEING USED TO AUGMENT CLOUD COVER ABOVE
       12000 FEET.
       "FAIR" INDICATES FEW OR NO CLOUDS BELOW 12,000 FEET WITH NO
       SIGNIFICANT WEATHER AND/OR OBSTRUCTIONS TO VISIBILITY.

  * THESE STATIONS DO NOT REPORT WEATHER SUCH AS RAIN...SNOW OR FOG.

NEZ001>004-019>022-054>056-230300-
NEBRASKA PANHANDLE

CITY           SKY/WX    TMP DP  RH WIND       PRES   REMARKS
SCOTTSBLUFF    CLOUDY    74  47  38 E14       29.95R
ALLIANCE       CLEAR     70  48  45 NE9       29.96R
CHADRON        CLEAR     71  40  32 NE10      29.95R
GORDON         FAIR      69  42  36 NE9       29.97R
KIMBALL        CLOUDY    71  53  52 E13G18    29.99S
SIDNEY         CLOUDY    73  53  49 E16       29.97S
$$

NEZ057>060-069>072-079>082-230300-
SOUTHWEST NEBRASKA

CITY           SKY/WX    TMP DP  RH WIND       PRES   REMARKS
NORTH PLATTE   PTCLDY    74  52  46 NE8       29.91R
IMPERIAL       CLOUDY    74  55  51 NE13G23   29.91R
LEXINGTON      CLEAR     75  59  57 N13       29.83S
MCCOOK         PTCLDY    78  59  51 N14       29.84R
OGALLALA       PTCLDY    75  55  48 NE8       29.94R
$$

NEZ005>010-023>029-035>040-094-230300-
NORTH CENTRAL NEBRASKA

CITY           SKY/WX    TMP DP  RH WIND       PRES   REMARKS
VALENTINE      CLEAR     75  44  33 N8        29.92R
AINSWORTH      PTCLDY    69  49  49 NE5       29.91R
BROKEN BOW     CLEAR     71  54  54 N16       29.87R
O`NEILL        CLOUDY    70  55  58 N13       29.87R
ORD            CLOUDY    70  56  61 N16       29.83R
THEDFORD       PTCLDY    70  50  48 NE6       29.94R
$$

NEZ041-046>049-061>064-073>077-083>087-230300-
SOUTH CENTRAL NEBRASKA

CITY           SKY/WX    TMP DP  RH WIND       PRES   REMARKS
GRAND ISLAND   MOCLDY    75  63  66 N17G26    29.79R
AURORA         CLEAR     76  61  60 N16G22    29.77R
HASTINGS       CLEAR     79  60  52 N14G25    29.77R
HEBRON         CLEAR     83  67  58 N16G24    29.68R
HOLDREGE       CLEAR     76  59  56 N13G21    29.80R
KEARNEY *      CLEAR     75  57  53 N22G29    29.80R
$$

NEZ011>018-030>034-042>045-230300-
NORTHEAST NEBRASKA

CITY           SKY/WX    TMP DP  RH WIND       PRES   REMARKS
NORFOLK        PTCLDY    73  62  68 N13       29.77R
ALBION         CLOUDY    73  61  65 N9        29.81R
BLAIR          CLOUDY    82  67  61 N10       29.69R
FREMONT        CLOUDY    81  61  51 N8G20     29.71R
TEKAMAH        PTCLDY    77  64  64 N20G35    29.70R
WAYNE          PTCLDY    73  64  74 N14       29.78R
$$

NEZ050>053-065>068-078-088>093-230300-
SOUTHEAST NEBRASKA

CITY           SKY/WX    TMP DP  RH WIND       PRES   REMARKS
LINCOLN        MOCLDY    82  68  62 N17       29.67R
OMAHA EPPLEY   CLOUDY    83  68  60 N9        29.66R
BEATRICE       CLOUDY    86  70  58 CALM      29.64R HX  90
FALLS CITY     CLEAR     81  71  71 SE7       29.64R
NEBRASKA CITY  MOCLDY    82  70  65 S5        29.66R
PLATTSMOUTH    CLOUDY    82  69  64 CALM      29.65S
$$

NEZ044-045-051>053-067-230300-
OMAHA AREA

CITY           SKY/WX    TMP DP  RH WIND       PRES   REMARKS
OMAHA EPPLEY   CLOUDY    83  68  60 N9        29.66R
BLAIR          CLOUDY    82  67  61 N10       29.69R
FREMONT        CLOUDY    81  61  51 N8G20     29.71R
MILLARD        CLOUDY    86  69  56 NE6       29.66R HX  90
OFFUTT AFB     CLOUDY    82  71  70 NW3       29.65R
PLATTSMOUTH    CLOUDY    82  69  64 CALM      29.65S
WAHOO          MOCLDY    81  63  53 N21       29.69R
$$




USA.gov is the U.S. government's official web portal to all federal, state and local government web resources and services.